Location: Newark
(41.6500°N, 71.4833°W)
Time: 20:23:49
(UTC+00:00)

Courier 1B - Pass Details

Date: 26 January 2020
Orbit: 962 x 1209 km, 28.3° (Epoch: 27 February)

Event Time Altitude Azimuth Distance (km) Brightness Sun altitude
Exits shadow 11:35:33 - 258° (WSW) 4,018 10.2 -5.7°
Rises 11:35:35 0° 258° (WSW) 4,011 10.2 -5.7°
Reaches altitude 10° 11:39:16 10° 241° (WSW) 3,083 9.7 -5.1°
Maximum altitude 11:44:21 19° 199° (SSW) 2,491 9.7 -4.2°
Drops below altitude 10° 11:49:31 10° 158° (SSE) 3,135 10.9 -3.3°
Sets 11:53:19 0° 141° (SE) 4,100 12.0 -2.6°
